Powrót do katalogu

COSMOS 2533

AktywnyNawigacjaGEO
NORAD 43867·PAYLOAD·🇷🇺 Russia

Wystrzelony Dec 21, 2018 z Baikonur Cosmodrome

Loading…

TLE

ŚwieżeSource: Space-Track

Epoka: Sep 14, 2026, 14:08 UTC

1 43867U 18107A   26257.58896774 -.00000047  00000-0  00000-0 0  9993
2 43867   0.0161 129.0879 0000298 164.7650 341.7283  1.00274392 28345

Śledź COSMOS 2533 w czasie rzeczywistym z AllMySat

Download on the App Store